{"data":{"norad_id":57608,"epoch":"2026-09-19T18:29:12.756192Z","epoch_age_seconds":190871,"freshness":"STALE","line1":"1 57608U 23119G   26262.77028653  .00000065  00000+0  11871-4 0  9990","line2":"2 57608  43.0034  65.9228 0000962 273.7226  86.3516 15.27577136172766","mean_motion":15.27577136,"eccentricity":9.62e-5,"inclination_deg":43.0034,"raan_deg":65.9228,"arg_perigee_deg":273.7226,"mean_anomaly_deg":86.3516,"bstar":1.1871e-5,"rev_number":17276,"period_min":94.266925451024,"perigee_km":482.39762497193,"apogee_km":483.71771882681,"semimajor_km":6861.1946718994,"source":"CELESTRAK","updated_at":"2026-09-21T09:00:33.641026Z"}}